Погода в Канкуне

Мексика     21°10′09″N   86°50′41″W
темп.,
°C
ветер,
м/с
пор.,
м/с
влажн.,
%
обл.,
%
осадки,
мм/ч
давл.,
гПа
погр.,
м
13 апреля, вт
вт1301:00+27юв58800 0.0 1012263
04:00+26юв58820 0.0 1011312
07:00+26вюв58840 0.0 1013453
10:00+28вюв58730 0.0 1014800
13:00+28вюв68731 0.0 10141011
16:00+28вюв67751 0.1 1013959
19:00+27вюв57830 0.1 1013613
22:00+26юв58860 0.0 1015558
14 апреля, ср
ср1401:00+26вюв47861 0.0 1014521
04:00+25в47884 0.0 1013497
07:00+26вюв57842 0.0 1015649
10:00+28вюв687411 0.0 10171008
13:00+28юв79720 0.1 10151051
16:00+28юв67720 0.1 1013953
19:00+26вюв68840 0.3 1014632
22:00+26вюв788037 0.3 1015678
15 апреля, чт
чт1501:00+25вюв687411 0.3 1014627
04:00+24юв5770100 0.0 1012505
07:00+25юв586411 0.0 1014643
10:00+27юв7856100 0.0 1014972
13:00
16:00+28ююв67565 0.0 1010897
19:00+26ююв57710 0.0 1011725
22:00+25юв58780 0.0 1012643
16 апреля, пт
пт1601:00+25юв68770 0.0 1011730
04:00+26юв697611 0.0 1010885
07:00+26юв79760 0.0 1011837
10:00+27ююв810700 0.0 10111038
13:00+29ююв811650 0.0 10091093
16:00+28ююв811710 0.0 1007925
19:00+26ююв710830 0.0 1008760
22:00+26ююв710834 0.0 1010831
17 апреля, сб
сб1701:00+26юв7108325 0.0 1010884
04:00+26юв811832 0.0 1008851
07:00+26юв8118579 0.1 1009960
10:00+27ююв9127754 0.1 10111043
13:00+29ююв8117495 0.1 10101035
16:00+29ююв711731 0.1 1009927
19:00+27юв611850 0.1 1010646
22:00+27юв711871 0.1 1011654